Temperature
17 18 17 17 17 17 17 17 17 17 17 17 17 17 17 17 16 16 16 16 16 16 16 16 16 16 16 16 16 16 16 16 16 16 16 16 16 16 15 15 15 15 15
18 17 17 17 17 17 17 17 17 16 16 16 16 16 16 16 16 16 16 16 16 16 16 16 16 16 16 16 16 16 16 16 16 16 16 16 16 15 15 15 15 15 15
17 17 17 17 17 17 17 17 17 16 16 16 16 16 16 16 16 16 16 16 16 16 16 16 16 16 16 16 16 16 16 16 15 15 15 15 15 15 15 15 15 15 15
17 17 17 16 16 16 16 16 16 16 16 16 16 16 16 16 16 16 16 16 16 16 16 16 16 16 16 16 16 16 16 15 15 15 15 15 15 15 15 15 15 15 15
16 16 16 16 16 16 16 16 16 16 16 16 16 16 16 16 16 16 16 16 16 16 16 16 16 16 16 16 16 16 15 15 15 14 14 14 15 15 15 15 15 15 15
16 16 16 16 16 16 16 16 16 16 16 16 16 16 16 16 16 16 16 16 15 16 16 16 16 16 16 16 16 16 15 15 15 14 14 14 15 15 15 15 15 15 15
15 16 16 16 16 15 15 16 16 16 16 16 16 16 16 16 16 16 16 15 15 15 15 15 15 15 15 15 15 15 15 15 14 14 14 14 14 15 15 15 15 15 15
15 15 15 15 15 15 15 15 15 16 16 16 16 16 16 16 16 15 15 15 15 15 15 15 15 15 15 15 15 15 15 15 14 14 14 14 14 14 15 15 15 15 15
15 15 15 15 15 15 15 15 15 15 15 15 15 15 15 15 15 15 15 15 15 15 15 15 15 15 15 15 15 15 15 15 14 14 14 14 14 14 14 15 15 15 15
14 14 14 14 14 14 15 15 15 15 15 15 15 15 15 15 15 15 15 15 15 15 15 15 15 15 15 15 15 15 15 14 14 14 14 14 14 14 14 14 15 14 14
14 14 14 14 14 14 14 14 14 14 15 15 15 15 15 14 14 14 15 15 15 15 15 15 15 15 15 15 15 14 14 14 14 14 14 14 14 14 14 14 14 14 14
13 14 14 14 14 14 14 14 14 14 14 14 14 14 14 14 14 14 14 14 14 14 14 14 14 14 14 14 14 14 14 14 14 14 14 14 14 14 14 14 14 14 14
13 13 13 13 14 14 14 13 13 14 14 14 14 14 14 14 14 14 14 14 14 14 14 14 14 14 14 14 14 14 14 14 14 14 13 14 14 14 14 14 14 14 14
13 13 13 13 13 13 13 13 13 13 13 13 14 14 14 13 13 13 14 14 14 14 14 14 14 14 14 14 14 14 14 14 13 13 13 13 13 14 14 14 14 14 13
13 13 13 13 13 13 13 13 13 13 13 13 13 13 13 13 13 13 13 13 13 13 13 13 13 13 13 13 13 13 13 13 13 13 13 13 13 13 14 13 13 13 13
12 13 13 13 13 13 13 13 13 13 13 13 13 13 13 13 13 13 13 13 13 13 13 13 13 13 13 13 13 13 13 13 13 13 13 13 13 13 13 13 13 13 13
12 12 12 13 13 13 13 13 13 13 13 13 13 13 13 13 13 13 13 13 13 13 13 13 13 13 13 13 13 13 13 13 13 13 12 13 13 13 13 13 13 13 13
12 12 12 12 12 12 12 12 12 12 12 12 12 12 12 12 13 13 13 13 13 13 13 13 13 13 13 13 13 12 12 12 12 12 12 12 12 12 13 13 13 13 13
12 12 12 12 12 12 12 12 12 12 12 12 12 12 12 12 12 12 12 12 12 12 12 12 12 12 12 12 12 12 12 12 12 12 12 12 12 12 12 12 12 12 12
11 11 11 12 12 12 12 12 12 12 12 12 12 12 12 12 12 12 12 12 12 12 12 12 12 12 12 12 12 12 12 12 12 12 12 12 12 12 12 12 12 12 11
11 11 11 11 11 11 11 11 12 11 11 12 12 12 12 12 12 12 12 12 12 12 12 12 12 12 11 11 11 11 11 11 11 11 11 11 11 11 11 11 11 11 11
11 11 11 11 11 11 11 11 11 11 11 11 11 11 11 11 11 11 12 11 11 11 11 11 11 11 11 11 10 10 10 11 11 11 11 11 11 11 11 11 11 11 10
11 11 11 11 11 11 11 11 11 11 11 11 11 11 11 11 11 11 11 11 11 11 11 11 11 11 11 10 10 10 10 10 10 10 11 11 10 10 10 10 10 10 10
10 10 10 10 10 11 11 10 11 10 10 10 10 11 11 11 11 11 11 11 11 11 11 10 10 10 10 10 10 10 10 9 9 9 10 10 10 10 10 10 10 10 9
10 10 10 10 10 10 10 10 10 10 10 10 10 10 10 10 10 10 11 10 11 10 10 10 10 10 10 10 10 9 9 9 9 8 8 9 9 9 9 9 9 9 9
10 10 10 10 10 10 10 10 10 10 9 9 9 10 10 10 10 10 10 10 10 10 10 10 10 10 10 9 9 9 9 9 9 8 8 8 8 9 9 9 9 9 9
Wind_Speed
8 12 13 12 11 11 10 9 9 9 10 10 10 10 10 10 10 10 11 11 10 10 10 9 9 9 9 10 10 10 10 11 11 11 11 11 10 10 10 9 10 10 11
10 13 13 13 11 11 10 10 9 8 8 10 10 10 9 10 10 10 10 10 9 9 9 9 8 9 9 9 9 9 9 9 9 9 10 9 9 9 9 10 10 9 10
11 12 12 12 11 11 10 10 9 9 8 9 9 10 9 9 9 9 9 9 9 9 9 8 8 8 8 8 8 7 7 7 7 7 6 7 8 8 9 9 9 9 9
9 11 11 12 11 10 10 10 10 9 8 9 9 9 9 9 9 9 8 8 8 8 8 8 8 8 7 7 6 6 6 5 5 4 3 6 7 8 8 8 7 7 8
8 9 11 11 10 10 10 10 9 9 8 8 8 9 9 8 8 8 8 8 8 8 7 7 7 7 7 7 6 5 4 4 4 4 2 6 8 8 7 7 6 6 6
7 9 9 11 10 9 10 11 10 9 8 8 8 8 8 7 7 8 8 8 8 8 7 6 6 6 5 5 5 4 3 3 4 4 3 6 8 8 7 6 5 5 5
6 8 9 9 10 10 10 11 10 9 8 8 8 8 7 7 6 7 8 8 7 7 7 6 5 5 4 4 4 3 2 4 4 2 3 5 7 7 6 5 4 3 4
5 7 8 9 10 10 10 10 10 9 8 8 8 8 7 7 6 6 7 8 7 7 6 6 5 4 4 4 3 3 3 4 3 2 4 6 7 6 5 4 3 3 2
4 5 7 9 10 11 10 10 10 9 9 8 8 8 8 7 7 6 6 7 7 7 7 6 5 4 4 4 4 4 5 6 5 3 3 6 7 6 5 4 3 3 2
2 3 4 7 8 9 10 10 10 10 10 9 9 9 9 8 8 7 6 8 7 7 6 6 5 4 4 4 5 6 7 7 6 4 4 6 7 6 4 4 4 3 3
2 2 3 4 6 7 8 9 10 10 9 10 9 10 9 8 7 7 7 8 8 7 7 6 5 4 4 5 6 7 8 8 7 4 5 7 6 5 4 4 5 4 4
2 2 2 3 4 5 6 7 7 7 7 8 7 8 7 6 5 5 7 8 8 7 6 6 6 6 5 5 6 7 7 8 5 2 6 8 6 5 5 5 5 5 5
2 2 2 3 3 5 4 4 4 4 5 6 7 6 5 4 4 4 4 5 6 6 5 5 5 5 6 5 5 6 8 6 3 2 7 8 6 5 5 6 6 6 6
2 2 2 3 3 3 4 3 3 3 3 3 6 6 4 3 2 3 2 3 4 4 3 3 4 5 6 5 5 5 5 4 3 3 7 9 7 6 6 7 7 7 7
2 2 2 2 3 3 3 3 3 3 3 4 5 5 4 3 2 2 1 2 2 2 2 2 3 3 3 3 4 4 3 4 3 3 6 8 7 7 7 7 7 6 7
2 2 2 1 2 2 3 3 3 3 4 4 4 5 5 4 2 2 2 1 1 1 1 1 2 2 2 2 2 3 3 3 3 3 5 7 7 7 7 7 7 6 7
1 2 2 1 1 2 2 2 2 3 3 3 4 5 5 4 3 2 2 1 0 1 1 1 2 1 1 1 2 3 2 2 1 1 3 5 6 7 7 8 7 6 7
2 2 2 2 1 1 2 2 2 2 3 3 4 4 5 4 3 2 2 1 0 0 0 1 1 0 1 1 2 2 2 1 1 1 1 2 4 5 6 7 7 7 7
3 3 3 2 2 1 2 2 2 2 2 2 3 4 4 4 3 2 1 1 1 1 0 1 0 0 0 1 1 2 2 1 1 1 1 1 2 3 4 6 7 8 7
3 3 4 3 2 2 2 2 2 3 2 2 2 3 4 3 3 2 1 1 1 1 1 1 0 0 0 1 2 2 2 2 1 1 1 1 1 2 3 4 5 6 7
3 4 3 3 2 2 2 1 2 2 2 2 2 3 3 3 3 2 1 1 1 1 1 1 1 1 0 0 1 2 2 2 1 1 1 0 1 1 2 2 2 3 4
3 3 3 3 2 2 1 1 1 2 2 2 2 2 2 2 2 2 2 1 1 1 1 1 1 1 0 1 1 0 1 2 2 2 0 0 1 1 1 1 2 2 3
3 2 2 2 3 2 2 2 2 2 1 1 1 1 1 2 2 1 1 1 1 2 2 1 1 1 1 1 0 1 0 1 2 2 1 1 1 2 2 1 1 2 2
3 2 2 2 2 2 3 2 2 2 2 1 2 2 2 2 2 2 1 1 2 1 1 2 1 1 2 2 1 0 1 0 0 2 3 2 2 2 2 2 1 2 2
4 3 3 2 2 2 2 2 2 2 2 1 2 3 2 2 2 2 2 2 2 2 2 2 1 1 1 2 1 1 1 1 1 1 3 3 3 2 2 2 1 1 1
4 3 3 2 1 1 2 2 3 2 2 2 2 2 2 2 1 2 2 2 1 2 2 2 2 2 1 1 1 1 1 1 1 1 2 3 3 3 3 2 2 1 1
Wind_Direction
116 127 133 133 133 132 132 131 129 129 136 135 132 131 126 121 117 113 113 113 111 112 112 110 108 106 104 103 101 98 98 96 95 94 91 88 88 85 79 74 80 79 83
122 129 132 135 135 135 134 133 129 126 134 139 137 136 133 129 125 121 118 117 116 113 112 112 111 110 108 108 107 106 107 107 108 107 103 96 93 89 79 71 78 82 85
120 128 133 132 136 138 138 137 134 129 131 137 141 140 138 136 132 128 128 125 121 117 113 110 108 108 110 114 117 118 120 123 129 134 128 119 109 99 90 85 84 83 85
113 124 133 132 137 143 143 141 138 135 135 140 144 144 141 141 139 136 135 131 127 122 117 112 108 107 110 114 122 132 140 150 165 177 163 136 121 113 107 98 91 88 89
106 118 131 135 138 146 149 148 143 138 140 140 144 147 143 141 145 143 140 137 132 126 121 118 115 112 113 114 119 134 159 182 196 217 148 115 115 122 117 107 99 99 97
109 112 129 139 143 146 152 152 149 145 144 146 146 148 146 145 147 149 144 140 134 128 127 126 124 121 121 124 130 140 169 214 227 226 147 123 120 126 125 118 110 108 108
111 114 135 143 146 145 149 152 150 146 147 150 149 151 153 153 148 152 149 145 140 136 137 139 138 138 139 142 150 169 218 252 230 206 130 119 124 131 130 129 126 124 123
108 119 138 148 145 145 150 152 152 149 151 155 156 152 156 159 154 149 155 153 151 148 147 148 148 148 158 166 180 208 246 263 251 202 133 130 135 140 140 138 137 141 149
105 129 141 154 154 151 151 154 157 157 158 162 164 161 161 164 162 159 155 159 157 156 155 155 156 161 172 189 208 229 253 268 274 247 154 137 146 152 157 163 171 174 181
98 129 148 154 157 152 150 156 160 165 167 170 172 171 170 170 170 166 162 165 165 167 166 166 169 180 194 209 222 234 253 267 259 236 154 149 155 166 178 192 200 203 207
132 145 155 159 151 152 155 161 161 167 174 174 174 173 171 173 171 168 167 169 169 173 177 178 183 192 205 217 224 233 246 254 248 209 151 158 168 181 198 211 216 217 220
164 170 169 170 161 157 162 160 167 167 169 171 161 162 169 170 167 165 167 180 184 184 185 192 198 199 207 214 222 230 241 248 246 177 152 164 176 197 215 218 223 229 231
170 169 178 173 172 162 157 157 157 157 166 170 159 162 159 140 137 140 153 166 178 177 182 192 197 208 220 214 209 222 239 246 237 174 163 171 184 207 226 233 230 235 234
154 172 167 168 172 168 156 162 161 154 166 158 153 162 147 126 128 132 149 167 172 178 178 193 218 228 233 218 212 226 241 242 232 188 172 179 191 209 228 238 240 242 234
158 171 167 163 177 173 166 179 159 154 161 151 150 166 148 134 140 135 140 149 164 181 182 213 242 249 249 234 229 230 237 235 230 199 171 185 197 209 225 234 239 243 240
146 150 145 171 177 177 184 181 163 155 158 150 147 153 143 128 133 144 142 132 158 160 179 228 252 252 259 262 254 254 244 242 232 187 173 188 200 211 222 231 238 242 249
164 141 136 159 174 182 165 172 150 148 141 148 149 148 139 128 129 132 137 136 148 159 176 254 277 304 280 281 270 270 259 249 257 226 176 178 189 206 220 230 238 244 249
122 129 142 158 158 159 131 141 148 138 135 141 145 138 137 132 134 130 137 150 30 76 90 182 218 287 301 298 294 298 300 290 287 270 215 184 184 198 212 226 232 241 247
109 123 129 137 148 135 129 130 124 123 123 127 131 136 136 138 145 131 148 138 56 57 126 190 107 81 323 318 298 293 295 293 264 254 230 198 189 194 200 220 230 232 236
102 109 109 114 118 113 108 114 111 112 107 105 115 138 136 134 134 122 142 114 76 121 149 168 168 6 253 267 307 308 297 279 278 260 252 240 215 213 216 222 225 228 229
93 89 88 93 97 90 88 129 138 129 106 96 99 117 138 138 133 136 142 126 121 148 182 164 92 54 350 9 24 336 310 282 279 274 259 284 304 247 247 241 218 231 231
91 98 96 86 85 97 101 109 113 110 99 103 94 95 118 128 130 147 144 155 150 140 133 106 93 90 357 37 96 88 330 329 331 294 272 250 315 348 314 276 235 239 239
92 98 106 112 104 95 91 82 89 87 77 85 104 110 120 128 125 126 136 149 151 153 173 173 142 118 166 302 37 129 157 252 324 322 335 355 354 350 333 325 293 266 247
114 104 106 120 121 124 121 126 137 136 145 158 141 141 142 139 134 134 152 160 159 160 172 190 158 163 170 202 253 231 209 168 187 313 319 334 346 327 314 317 323 299 270
111 110 104 106 124 133 142 156 162 136 125 117 118 135 141 142 152 146 140 164 167 174 186 189 170 193 197 201 206 249 278 292 219 219 275 304 318 306 307 308 313 292 293
100 104 106 108 125 133 150 169 179 166 159 138 133 142 151 149 160 161 151 162 174 184 190 186 184 200 223 226 228 237 235 225 230 228 258 287 294 293 305 302 303 292 284
Height
1500 1502 1504 1506 1508 1510 1511 1513 1514 1516 1518 1520 1521 1522 1524 1525 1527 1528 1529 1530 1532 1533 1534 1535 1536 1537 1537 1538 1539 1540 1540 1541 1542 1542 1543 1543 1543 1544 1544 1544 1545 1545 1545
1499 1501 1504 1506 1507 1509 1511 1513 1514 1516 1518 1520 1521 1523 1524 1525 1527 1528 1530 1531 1532 1533 1534 1535 1536 1537 1538 1539 1540 1540 1541 1542 1543 1543 1544 1544 1545 1545 1545 1546 1546 1546 1546
1499 1501 1503 1505 1507 1509 1511 1513 1515 1516 1518 1520 1522 1523 1524 1526 1527 1528 1530 1531 1532 1533 1534 1535 1537 1537 1538 1539 1540 1541 1542 1543 1544 1544 1545 1545 1546 1546 1547 1547 1547 1547 1547
1499 1501 1503 1505 1507 1509 1510 1512 1514 1516 1518 1520 1521 1523 1525 1526 1527 1528 1530 1531 1532 1533 1534 1536 1537 1538 1538 1539 1540 1541 1543 1543 1544 1545 1546 1546 1547 1547 1547 1548 1548 1548 1548
1500 1501 1503 1505 1506 1508 1510 1512 1514 1515 1517 1519 1521 1523 1524 1526 1527 1528 1530 1531 1532 1533 1534 1535 1536 1537 1538 1539 1541 1542 1543 1544 1545 1546 1546 1547 1547 1548 1548 1548 1548 1548 1549
1499 1500 1502 1504 1506 1507 1509 1511 1513 1515 1517 1519 1520 1522 1523 1525 1527 1528 1529 1531 1532 1533 1534 1535 1536 1537 1538 1539 1541 1542 1543 1544 1545 1546 1547 1547 1548 1548 1548 1548 1548 1549 1549
1498 1500 1501 1503 1505 1507 1508 1510 1512 1514 1516 1518 1519 1521 1523 1524 1526 1528 1529 1530 1532 1533 1534 1535 1536 1537 1538 1539 1540 1541 1543 1544 1545 1546 1547 1547 1547 1548 1548 1548 1548 1548 1549
1497 1498 1500 1502 1504 1506 1507 1509 1511 1513 1515 1517 1518 1520 1521 1523 1525 1526 1528 1529 1531 1532 1533 1534 1535 1536 1537 1539 1540 1541 1542 1543 1544 1545 1546 1546 1547 1547 1547 1547 1548 1548 1548
1496 1497 1499 1500 1503 1504 1506 1508 1510 1512 1514 1516 1517 1519 1521 1522 1524 1526 1527 1528 1530 1531 1532 1533 1535 1536 1537 1538 1539 1540 1541 1542 1543 1544 1545 1545 1546 1546 1546 1547 1547 1547 1547
1495 1496 1497 1499 1501 1503 1505 1507 1509 1511 1513 1515 1516 1518 1520 1521 1523 1525 1526 1528 1529 1530 1531 1533 1534 1535 1536 1537 1538 1539 1540 1541 1542 1543 1544 1544 1545 1545 1545 1545 1546 1546 1546
1493 1494 1495 1497 1499 1501 1503 1505 1507 1509 1511 1513 1515 1517 1518 1520 1522 1523 1525 1526 1528 1529 1530 1532 1533 1534 1535 1536 1537 1538 1539 1540 1541 1542 1542 1543 1543 1544 1544 1544 1544 1544 1545
1491 1492 1493 1495 1497 1499 1501 1503 1505 1507 1510 1512 1514 1515 1517 1519 1521 1522 1524 1525 1527 1528 1529 1530 1532 1533 1534 1535 1536 1537 1538 1539 1539 1540 1541 1541 1542 1542 1542 1542 1543 1543 1543
1490 1491 1492 1493 1496 1497 1499 1501 1503 1505 1508 1510 1512 1514 1515 1517 1519 1520 1522 1524 1525 1527 1528 1529 1530 1531 1532 1533 1534 1535 1536 1537 1538 1538 1539 1539 1540 1540 1540 1540 1541 1541 1541
1488 1489 1490 1492 1493 1495 1497 1499 1501 1503 1505 1507 1509 1512 1513 1515 1517 1519 1520 1522 1524 1525 1526 1528 1529 1530 1531 1532 1533 1534 1534 1535 1536 1536 1537 1537 1537 1538 1538 1538 1538 1539 1539
1487 1487 1489 1490 1491 1493 1495 1497 1498 1500 1503 1505 1507 1510 1511 1513 1515 1517 1518 1520 1522 1523 1524 1526 1527 1528 1529 1530 1531 1532 1533 1533 1534 1534 1535 1535 1535 1535 1536 1536 1536 1536 1536
1485 1486 1487 1488 1489 1491 1493 1495 1496 1498 1501 1503 1505 1507 1510 1511 1513 1515 1517 1518 1520 1521 1523 1524 1525 1526 1527 1528 1529 1530 1530 1531 1532 1532 1532 1532 1532 1533 1533 1533 1533 1533 1534
1483 1484 1486 1487 1488 1489 1490 1492 1494 1496 1499 1501 1503 1505 1507 1509 1511 1513 1515 1516 1518 1519 1520 1522 1523 1524 1525 1525 1526 1527 1528 1529 1529 1529 1530 1530 1530 1530 1530 1530 1530 1531 1531
1482 1483 1484 1485 1486 1488 1488 1490 1492 1494 1496 1499 1501 1503 1505 1507 1509 1511 1513 1514 1516 1517 1518 1519 1520 1521 1522 1523 1523 1524 1525 1525 1526 1526 1527 1527 1527 1527 1527 1527 1527 1527 1528
1481 1482 1483 1484 1485 1487 1488 1488 1490 1492 1494 1497 1499 1501 1503 1505 1507 1508 1510 1512 1513 1514 1516 1517 1518 1519 1519 1520 1521 1521 1522 1522 1523 1523 1524 1524 1524 1524 1524 1524 1524 1524 1524
1480 1481 1482 1483 1484 1485 1485 1486 1488 1490 1492 1495 1497 1499 1500 1502 1504 1506 1508 1509 1511 1512 1513 1514 1516 1516 1517 1518 1518 1518 1519 1519 1520 1520 1521 1521 1521 1521 1521 1521 1521 1521 1521
1479 1480 1481 1482 1483 1483 1484 1485 1486 1488 1490 1493 1495 1496 1498 1500 1502 1503 1505 1507 1508 1509 1510 1512 1513 1514 1514 1515 1516 1516 1516 1517 1517 1518 1518 1518 1518 1518 1518 1518 1518 1518 1517
1478 1479 1480 1481 1482 1482 1483 1484 1485 1486 1488 1491 1493 1494 1495 1497 1499 1501 1503 1504 1505 1507 1508 1509 1510 1511 1512 1513 1513 1513 1513 1515 1515 1515 1515 1515 1515 1515 1515 1515 1515 1515 1514
1477 1478 1480 1481 1482 1483 1483 1484 1485 1485 1487 1488 1490 1491 1493 1494 1496 1498 1500 1501 1502 1504 1505 1507 1508 1509 1510 1511 1512 1513 1512 1512 1512 1512 1512 1513 1513 1512 1512 1512 1511 1511 1511
1476 1478 1479 1480 1481 1482 1483 1484 1484 1484 1485 1487 1488 1489 1491 1492 1494 1496 1497 1499 1500 1502 1503 1504 1505 1506 1507 1508 1509 1510 1511 1511 1511 1509 1510 1510 1510 1510 1509 1509 1508 1508 1508
1475 1476 1477 1478 1480 1481 1481 1482 1483 1483 1484 1485 1486 1487 1489 1490 1492 1494 1495 1496 1498 1499 1500 1501 1503 1504 1505 1505 1506 1507 1507 1508 1508 1508 1506 1506 1506 1506 1506 1505 1505 1505 1504
1474 1475 1476 1477 1478 1479 1480 1481 1482 1483 1484 1484 1484 1486 1487 1488 1490 1491 1492 1493 1495 1496 1497 1498 1500 1501 1502 1503 1503 1504 1504 1505 1505 1505 1504 1503 1502 1502 1502 1502 1502 1502 1501